When you browse on this site, cookies collect data to enhance your experience and personalize the content and advertising you see.
Visit our Privacy Policy to learn more. By continuing to use the site, you agree to this use of cookies and data.
  • In Austria
  • List of Countries
  • For 7 days
  • Water Temperature
  • Satellite Maps
  • Weather Map
  • News
  • Weather Widgets
  • user-avatar
    Login

    Hourly Weather Rivne

    Today, 20 May, Monday

    Time Temperature Precipitation Wind Pressure Humidity
    00:00 +18°C° 0 mm 1 mps 753 mmHg 94%
    01:00 +18°C° 0 mm 1 mps 753 mmHg 94%
    02:00 +17°C° 0 mm 2 mps 753 mmHg 94%
    03:00 +17°C° 0 mm 2 mps 753 mmHg 93%
    04:00 +17°C° 0 mm 2 mps 754 mmHg 93%
    05:00 +17°C° 0 mm 2 mps 754 mmHg 92%
    06:00 +19°C° 0 mm 3 mps 754 mmHg 84%
    07:00 +21°C° 0 mm 3 mps 755 mmHg 76%
    08:00 +24°C° 0 mm 3 mps 755 mmHg 66%
    09:00 +25°C° 0 mm 3 mps 756 mmHg 63%
    10:00 +26°C° 0 mm 4 mps 756 mmHg 59%
    11:00 +27°C° 0 mm 5 mps 756 mmHg 56%
    12:00 +27°C° 0 mm 5 mps 756 mmHg 56%
    13:00 +28°C° 0 mm 6 mps 756 mmHg 56%
    14:00 +28°C° 0 mm 6 mps 756 mmHg 56%
    15:00 +27°C° 0 mm 6 mps 756 mmHg 58%
    16:00 +26°C° 0 mm 6 mps 756 mmHg 60%
    17:00 +26°C° 0 mm 6 mps 756 mmHg 63%
    18:00 +23°C° 0 mm 5 mps 756 mmHg 68%
    19:00 +21°C° 0 mm 4 mps 756 mmHg 74%
    20:00 +19°C° 0 mm 4 mps 755 mmHg 80%
    21:00 +18°C° 0 mm 4 mps 756 mmHg 81%
    22:00 +18°C° 0 mm 3 mps 756 mmHg 82%
    23:00 +17°C° 0 mm 3 mps 756 mmHg 83%

    Tomorrow, 21 May, Tuesday

    Time Temperature Precipitation Wind Pressure Humidity
    00:00 +17°C° 0 mm 3 mps 756 mmHg 83%
    01:00 +17°C° 0 mm 3 mps 756 mmHg 84%
    02:00 +17°C° 0 mm 3 mps 756 mmHg 85%
    03:00 +17°C° 0 mm 3 mps 756 mmHg 84%
    04:00 +17°C° 0 mm 2 mps 756 mmHg 83%
    05:00 +17°C° 0 mm 2 mps 756 mmHg 81%
    06:00 +18°C° 0 mm 2 mps 756 mmHg 78%
    07:00 +19°C° 0 mm 2 mps 756 mmHg 74%
    08:00 +21°C° 0 mm 3 mps 756 mmHg 70%
    09:00 +22°C° 0 mm 3 mps 756 mmHg 65%
    10:00 +24°C° 0 mm 3 mps 756 mmHg 59%
    11:00 +26°C° 0 mm 4 mps 756 mmHg 54%
    12:00 +27°C° 0 mm 3 mps 756 mmHg 50%
    13:00 +28°C° 0 mm 3 mps 756 mmHg 46%
    14:00 +29°C° 0 mm 3 mps 756 mmHg 42%
    15:00 +29°C° 0 mm 3 mps 756 mmHg 45%
    16:00 +28°C° 0 mm 3 mps 756 mmHg 47%
    17:00 +27°C° 0 mm 2 mps 755 mmHg 50%
    18:00 +25°C° 0 mm 2 mps 755 mmHg 58%
    19:00 +23°C° 0 mm 2 mps 755 mmHg 66%
    20:00 +20°C° 0 mm 1 mps 755 mmHg 74%
    21:00 +20°C° 0.4 mm 1 mps 755 mmHg 77%
    22:00 +19°C° 0.4 mm 1 mps 755 mmHg 79%
    23:00 +18°C° 0.4 mm 1 mps 755 mmHg 82%

    Day after tomorrow, 22 May, Wednesday

    Time Temperature Precipitation Wind Pressure Humidity
    00:00 +18°C° 0.1 mm 1 mps 755 mmHg 81%
    01:00 +19°C° 0.1 mm 1 mps 754 mmHg 80%
    02:00 +19°C° 0.1 mm 1 mps 754 mmHg 80%
    03:00 +18°C° 1.4 mm 1 mps 754 mmHg 83%
    04:00 +18°C° 1.4 mm 1 mps 754 mmHg 87%
    05:00 +18°C° 1.4 mm 1 mps 754 mmHg 91%
    06:00 +18°C° 3 mm 1 mps 754 mmHg 92%
    07:00 +18°C° 3 mm 1 mps 754 mmHg 92%
    08:00 +18°C° 3 mm 1 mps 754 mmHg 93%
    09:00 +18°C° 1 mm 2 mps 754 mmHg 88%
    10:00 +19°C° 1 mm 2 mps 754 mmHg 82%
    11:00 +20°C° 1 mm 2 mps 754 mmHg 77%
    12:00 +21°C° 0.7 mm 2 mps 754 mmHg 72%
    13:00 +23°C° 0.7 mm 2 mps 754 mmHg 67%
    14:00 +24°C° 0.7 mm 2 mps 754 mmHg 61%
    15:00 +24°C° 0.5 mm 3 mps 754 mmHg 62%
    16:00 +23°C° 0.5 mm 4 mps 754 mmHg 63%
    17:00 +23°C° 0.5 mm 5 mps 754 mmHg 64%
    18:00 +21°C° 0.1 mm 4 mps 754 mmHg 70%
    19:00 +19°C° 0.1 mm 4 mps 754 mmHg 75%
    20:00 +17°C° 0.1 mm 4 mps 754 mmHg 80%
    21:00 +17°C° 0 mm 4 mps 754 mmHg 81%
    22:00 +15°C° 0 mm 4 mps 754 mmHg 81%
    23:00 +14°C° 0 mm 4 mps 754 mmHg 82%

    23 May, Thursday

    Time Temperature Precipitation Wind Pressure Humidity
    00:00 +15°C° 0 mm 4 mps 754 mmHg 82%
    01:00 +15°C° 0 mm 5 mps 754 mmHg 83%
    02:00 +15°C° 0 mm 5 mps 754 mmHg 83%
    03:00 +15°C° 0 mm 5 mps 754 mmHg 83%
    04:00 +15°C° 0 mm 5 mps 754 mmHg 83%
    05:00 +16°C° 0 mm 5 mps 754 mmHg 83%
    06:00 +19°C° 0 mm 5 mps 754 mmHg 77%
    07:00 +20°C° 0 mm 6 mps 755 mmHg 70%
    08:00 +22°C° 0 mm 6 mps 755 mmHg 64%
    09:00 +23°C° 0 mm 6 mps 755 mmHg 60%
    10:00 +24°C° 0 mm 6 mps 755 mmHg 55%
    11:00 +26°C° 0 mm 6 mps 755 mmHg 51%
    12:00 +26°C° 0 mm 6 mps 755 mmHg 51%
    13:00 +26°C° 0 mm 6 mps 755 mmHg 52%
    14:00 +26°C° 0 mm 6 mps 755 mmHg 52%
    15:00 +26°C° 0 mm 6 mps 755 mmHg 54%
    16:00 +25°C° 0 mm 5 mps 755 mmHg 56%
    17:00 +23°C° 0 mm 5 mps 754 mmHg 58%
    18:00 +22°C° 0 mm 4 mps 754 mmHg 63%
    19:00 +20°C° 0 mm 4 mps 754 mmHg 69%
    20:00 +18°C° 0 mm 3 mps 755 mmHg 74%
    21:00 +18°C° 0 mm 3 mps 755 mmHg 73%
    22:00 +18°C° 0 mm 3 mps 755 mmHg 71%
    23:00 +17°C° 0 mm 2 mps 755 mmHg 69%

    24 May, Friday

    Time Temperature Precipitation Wind Pressure Humidity
    00:00 +17°C° 0 mm 2 mps 754 mmHg 68%
    01:00 +17°C° 0 mm 2 mps 754 mmHg 68%
    02:00 +16°C° 0 mm 2 mps 754 mmHg 67%
    03:00 +16°C° 0 mm 2 mps 754 mmHg 68%
    04:00 +16°C° 0 mm 1 mps 754 mmHg 68%
    05:00 +16°C° 0 mm 1 mps 754 mmHg 69%
    06:00 +18°C° 0 mm 2 mps 754 mmHg 63%
    07:00 +21°C° 0 mm 2 mps 754 mmHg 58%
    08:00 +24°C° 0 mm 2 mps 754 mmHg 52%
    09:00 +25°C° 0 mm 3 mps 754 mmHg 49%
    10:00 +26°C° 0 mm 3 mps 754 mmHg 46%
    11:00 +27°C° 0 mm 4 mps 754 mmHg 44%
    12:00 +27°C° 0 mm 4 mps 753 mmHg 43%
    13:00 +27°C° 0 mm 5 mps 753 mmHg 42%
    14:00 +28°C° 0 mm 6 mps 752 mmHg 42%
    15:00 +27°C° 0 mm 6 mps 752 mmHg 45%
    16:00 +26°C° 0 mm 6 mps 752 mmHg 48%
    17:00 +24°C° 0 mm 6 mps 751 mmHg 51%
    18:00 +22°C° 0 mm 5 mps 751 mmHg 57%
    19:00 +20°C° 0 mm 4 mps 751 mmHg 63%
    20:00 +18°C° 0 mm 4 mps 750 mmHg 69%
    21:00 +18°C° 0 mm 4 mps 750 mmHg 68%
    22:00 +18°C° 0 mm 4 mps 750 mmHg 68%
    23:00 +18°C° 0 mm 4 mps 750 mmHg 67%

    25 May, Saturday

    Time Temperature Precipitation Wind Pressure Humidity
    00:00 +17°C° 0 mm 3 mps 749 mmHg 71%
    01:00 +17°C° 0 mm 3 mps 749 mmHg 75%
    02:00 +17°C° 0 mm 2 mps 748 mmHg 79%
    03:00 +17°C° 0.1 mm 2 mps 748 mmHg 81%
    04:00 +17°C° 0.1 mm 2 mps 748 mmHg 82%
    05:00 +17°C° 0.1 mm 2 mps 748 mmHg 84%
    06:00 +19°C° 1.7 mm 2 mps 748 mmHg 80%
    07:00 +21°C° 1.7 mm 1 mps 748 mmHg 77%
    08:00 +22°C° 1.7 mm 1 mps 748 mmHg 74%
    09:00 +23°C° 0.5 mm 2 mps 748 mmHg 71%
    10:00 +24°C° 0.5 mm 2 mps 748 mmHg 69%
    11:00 +25°C° 0.5 mm 3 mps 748 mmHg 66%
    12:00 +24°C° 0.9 mm 2 mps 748 mmHg 68%
    13:00 +24°C° 0.9 mm 2 mps 748 mmHg 70%
    14:00 +23°C° 0.9 mm 1 mps 748 mmHg 72%
    15:00 +22°C° 0.2 mm 3 mps 748 mmHg 72%
    16:00 +22°C° 0.2 mm 4 mps 748 mmHg 72%
    17:00 +22°C° 0.2 mm 6 mps 749 mmHg 72%
    18:00 +20°C° 0 mm 5 mps 749 mmHg 75%
    19:00 +19°C° 0 mm 5 mps 749 mmHg 78%
    20:00 +16°C° 0 mm 5 mps 750 mmHg 81%
    21:00 +16°C° 0 mm 5 mps 750 mmHg 82%
    22:00 +16°C° 0 mm 6 mps 750 mmHg 83%
    23:00 +16°C° 0 mm 6 mps 750 mmHg 84%
    Show more